Fitchburg, MA

12:36 AM EDT on August 22, 2017 (GMT -0400)
Fitchburg Municipal

Weather History for KFIT - May, 2014

Change the Weather History Date:

Saturday, May 10, 2014

  Actual Average (KORH) Record (KORH)
Temperature  
Mean Temperature 68 °F -  
Max Temperature 82 °F 63 °F 90 °F (1979)
Min Temperature 53 °F 44 °F 30 °F (1958)
Cooling Degree Days 2    
Growing Degree Days 18 (Base 50)    
Moisture  
Dew Point 55 °F    
Average Humidity 85    
Maximum Humidity 100    
Minimum Humidity 38    
Precipitation  
Precipitation 0.04 in - - ()
Sea Level Pressure  
Sea Level Pressure 29.90 in    
Wind  
Wind Speed 2 mph (WSW)    
Max Wind Speed 17 mph    
Max Gust Speed 24 mph    
Visibility 4 miles    
Events Rain , Thunderstorm    
Averages and records for this station are not official NWS values.
T = Trace of Precipitation, MM = Missing Value Source: NWS Daily Summary

Daily Weather History Graph

Daily Weather History Graph

Search for Another Location

Airport or City:

Trip Planner

Search our weather history database for the weather conditions in past years. The results will help you decide how hot, cold, wet, or windy it might be!

Date:

Astronomy

May. 10, 2014 Rise Set
Actual Time 5:30 AM EDT 7:56 PM EDT
Civil Twilight 4:58 AM EDT 8:28 PM EDT
Nautical Twilight 4:19 AM EDT 9:08 PM EDT
Astronomical Twilight 3:35 AM EDT 9:52 PM EDT
Moon 3:44 PM EDT (5/10) 3:08 AM EDT (5/10)
Length of Visible Light 15h 30m
Length of Day
14h 26m
Waxing Gibbous, 82% of the Moon is Illuminated
May 10
Waxing Gibbous
May 14
Full
May 21
Last Quarter
May 28
New
Jun 5
First Quarter

Hourly Weather History & Observations

Time (EDT) Temp. Heat Index Dew Point Humidity Pressure Visibility Wind Dir Wind Speed Gust Speed Precip Events Conditions
12:00 AM 53.1 °F - 50.0 °F 89% 30.09 in 2.0 mi Calm Calm - 0.00 in Rain Light Rain
12:06 AM 53.1 °F - 50.0 °F 89% 30.09 in 2.5 mi Calm Calm - 0.00 in   Overcast
12:24 AM 53.1 °F - 51.1 °F 93% 30.08 in 3.0 mi Calm Calm - 0.01 in   Overcast
12:32 AM 53.1 °F - 51.1 °F 93% 30.07 in 3.0 mi ESE 3.5 mph - 0.01 in   Overcast
12:46 AM 53.6 °F - 51.8 °F 94% 30.07 in 2.5 mi Calm Calm - 0.01 in   Overcast
12:47 AM 53.1 °F - 51.1 °F 93% 30.07 in 2.5 mi Calm Calm - 0.01 in   Overcast
12:58 AM 53.1 °F - 51.1 °F 93% 30.05 in 3.0 mi ESE 3.5 mph - 0.00 in   Overcast
1:08 AM 53.1 °F - 51.1 °F 93% 30.04 in 4.0 mi Calm Calm - 0.00 in   Overcast
1:52 AM 53.1 °F - 51.1 °F 93% 30.02 in 2.5 mi Calm Calm - 0.00 in   Overcast
2:17 AM 53.1 °F - 51.1 °F 93% 29.99 in 3.0 mi Calm Calm - N/A   Overcast
2:42 AM 53.1 °F - 51.1 °F 93% 29.98 in 2.5 mi Calm Calm - N/A   Overcast
2:52 AM 53.1 °F - 51.1 °F 93% 29.98 in 2.0 mi Calm Calm - N/A   Overcast
3:03 AM 53.1 °F - 51.1 °F 93% 29.97 in 1.8 mi Calm Calm - N/A   Overcast
3:49 AM 53.6 °F - 51.8 °F 94% 29.94 in 1.0 mi Calm Calm - N/A   Overcast
3:52 AM 53.1 °F - 52.0 °F 96% 29.95 in 1.0 mi WNW 3.5 mph - N/A   Overcast
4:18 AM 54.0 °F - 52.0 °F 93% 29.93 in 1.2 mi Calm Calm - N/A   Overcast
4:37 AM 54.0 °F - 52.0 °F 93% 29.93 in 1.0 mi Calm Calm - N/A   Mist
4:52 AM 54.0 °F - 52.0 °F 93% 29.92 in 1.0 mi Calm Calm - N/A   Mist
5:14 AM 54.0 °F - 52.0 °F 93% 29.90 in 0.8 mi Calm Calm - N/A   Mist
5:24 AM 54.0 °F - 52.0 °F 93% 29.91 in 1.0 mi Calm Calm - N/A   Mist
5:49 AM 53.6 °F - 53.6 °F 100% 29.90 in 1.2 mi Calm Calm - N/A   Overcast
5:52 AM 54.0 °F - 53.1 °F 97% 29.90 in 1.5 mi Calm Calm - N/A   Overcast
6:06 AM 54.0 °F - 53.1 °F 97% 29.89 in 0.8 mi Calm Calm - N/A   Overcast
6:23 AM 55.0 °F - 53.1 °F 93% 29.90 in 1.0 mi NW 4.6 mph - N/A   Overcast
6:30 AM 55.0 °F - 53.1 °F 93% 29.90 in 1.5 mi Calm Calm - N/A   Overcast
6:50 AM 55.4 °F - 53.6 °F 94% 29.89 in 1.8 mi Calm Calm - N/A   Overcast
7:33 AM 55.9 °F - 54.0 °F 93% 29.89 in 3.0 mi North 3.5 mph - N/A   Overcast
7:40 AM 55.9 °F - 54.0 °F 93% 29.89 in 2.5 mi Calm Calm - N/A   Overcast
7:52 AM 57.0 °F - 54.0 °F 89% 29.87 in 2.5 mi North 3.5 mph - 0.01 in Rain Light Rain
8:30 AM 59.0 °F - 55.9 °F 90% 29.87 in 3.0 mi Calm Calm - 0.00 in Rain Light Rain
8:38 AM 59.0 °F - 57.0 °F 93% 29.86 in 2.5 mi Calm Calm - 0.00 in Rain Light Rain
8:44 AM 59.0 °F - 55.9 °F 90% 29.87 in 3.0 mi Calm Calm - 0.00 in   Overcast
8:52 AM 59.0 °F - 55.9 °F 90% 29.87 in 2.5 mi Calm Calm - 0.00 in   Overcast
9:01 AM 59.0 °F - 57.0 °F 93% 29.86 in 2.5 mi Calm Calm - 0.00 in Rain Light Rain
9:40 AM 60.1 °F - 57.9 °F 93% 29.86 in 2.0 mi NW 4.6 mph - 0.01 in   Overcast
9:48 AM 60.8 °F - 59.0 °F 94% 29.86 in 2.5 mi Calm Calm - 0.01 in   Overcast
9:52 AM 61.0 °F - 59.0 °F 93% 29.86 in 2.5 mi Variable 3.5 mph - 0.01 in   Overcast
10:05 AM 64.0 °F - 60.1 °F 87% 29.86 in 4.0 mi SW 5.8 mph - N/A   Overcast
10:31 AM 64.9 °F - 60.1 °F 84% 29.86 in 7.0 mi West 8.1 mph 18.4 mph 0.00 in Rain Light Rain
10:52 AM 66.0 °F - 60.1 °F 81% 29.86 in 7.0 mi WNW 3.5 mph - 0.00 in   Overcast
11:52 AM 70.0 °F - 61.0 °F 73% 29.86 in 9.0 mi SW 8.1 mph 17.3 mph N/A   Mostly Cloudy
12:52 PM 73.9 °F - 60.1 °F 62% 29.83 in 10.0 mi West 15.0 mph 20.7 mph N/A   Clear
1:52 PM 78.1 °F - 57.9 °F 50% 29.81 in 10.0 mi West 12.7 mph 24.2 mph N/A   Clear
2:52 PM 80.1 °F 80.4 °F 57.0 °F 45% 29.80 in 10.0 mi West 13.8 mph 20.7 mph N/A   Clear
3:52 PM 82.0 °F 81.3 °F 54.0 °F 38% 29.77 in 10.0 mi SW 11.5 mph 17.3 mph N/A   Clear
4:52 PM 81.0 °F 80.5 °F 54.0 °F 39% 29.76 in 10.0 mi SW 11.5 mph - N/A   Scattered Clouds
5:52 PM 73.0 °F - 62.1 °F 68% 29.78 in 7.0 mi SSW 17.3 mph 24.2 mph 0.00 in Rain Light Rain
6:20 PM 69.1 °F - 60.1 °F 73% 29.77 in 10.0 mi South 9.2 mph - 0.01 in Thunderstorm Overcast
6:35 PM 69.1 °F - 57.9 °F 68% 29.80 in 10.0 mi SW 13.8 mph 20.7 mph 0.01 in   Overcast
6:52 PM 66.9 °F - 61.0 °F 81% 29.79 in 7.0 mi SSW 11.5 mph 20.7 mph 0.02 in Rain Light Rain
7:52 PM 66.0 °F - 60.1 °F 81% 29.78 in 10.0 mi Variable 4.6 mph - 0.00 in   Clear
8:52 PM 66.9 °F - 60.1 °F 79% 29.81 in 10.0 mi Variable 3.5 mph - N/A   Clear
9:52 PM 66.0 °F - 59.0 °F 78% 29.81 in 10.0 mi East 3.5 mph - N/A   Clear
11:52 PM 68.0 °F - 55.9 °F 65% 29.80 in 10.0 mi West 11.5 mph 20.7 mph N/A   Clear